{"data":{"norad_id":55172,"epoch":"2026-09-19T01:11:06.732672Z","epoch_age_seconds":151105,"freshness":"FRESH","line1":"1 55172U 23004AJ  26262.04938348  .00000414  00000+0  11333-2 0  9997","line2":"2 55172  87.8960   2.4165 0000967  87.4096 272.7142 13.11414928178177","mean_motion":13.11414928,"eccentricity":9.67e-5,"inclination_deg":87.896,"raan_deg":2.4165,"arg_perigee_deg":87.4096,"mean_anomaly_deg":272.7142,"bstar":0.0011333,"rev_number":17817,"period_min":109.80506392406,"perigee_km":1216.9559702702,"apogee_km":1218.4250033061,"semimajor_km":7595.8274867882,"source":"CELESTRAK","updated_at":"2026-09-20T09:00:44.756967Z"}}